Regional Weather Roundup
Issued by NWS

Home | Current Version | Previous Version | Graphics & Text | Print | Product List | Glossary On
Versions: 1 2 3 4 5 6 7 8 9 10 11 12 13 14 15 16 17 18 19 20 21 22 23 24 25 26 27 28 29 30 31 32 33 34 35 36 37 38 39 40 41 42 43 44 45 46 47 48 49 50
000
ASUS43 KFSD 261102
RWRSD

WEATHER ROUNDUP FOR SOUTH DAKOTA
NATIONAL WEATHER SERVICE SIOUX FALLS SD
600 AM CDT THU MAY 26 2016

NOTE: "FAIR" INDICATES FEW OR NO CLOUDS BELOW 12,000 FEET WITH NO
SIGNIFICANT WEATHER AND/OR OBSTRUCTIONS TO VISIBILITY.


SDZ001>005-009-010-012>017-261200-
NORTHWEST AND NORTH CENTRAL SOUTH DAKOTA

CITY           SKY/WX    TMP DP  RH WIND       PRES   REMARKS
BUFFALO          N/A     42  38  85 S5        29.81R
FAITH            N/A     46  41  82 W8        29.85S
MOBRIDGE       CLEAR     48  43  82 N7        29.80F
$$

SDZ012>016-024>037-041>051-057-063-072>074-261200-
SOUTHWEST AND SOUTH CENTRAL SOUTH DAKOTA

CITY           SKY/WX    TMP DP  RH WIND       PRES   REMARKS
RAPID CTY ARPT CLEAR     46  42  86 CALM      29.88S
PIERRE         CLEAR     48  46  93 NW5       29.83R
CUSTER         PTCLDY    39  36  89 NW3       29.95F
ELLSWORTH AFB  CLEAR     47  44  90 W5        29.88R
PHILIP         CLEAR     45  43  93 W6        29.86R
PINE RIDGE     CLEAR     37  35  92 CALM      29.91S
WINNER         FAIR      51  47  86 CALM      29.87R
$$

SDZ004>011-016>023-039-040-261200-
NORTHEAST SOUTH DAKOTA

CITY           SKY/WX    TMP DP  RH WIND       PRES   REMARKS
ABERDEEN       CLEAR     48  46  93 W5        29.82R
WATERTOWN      CLEAR     55  50  83 W9        29.83R
BROOKINGS      CLEAR     52  49  89 W3        29.85R
SISSETON         N/A     56  51  84 W15       29.78R
$$

SDZ017-020-022-023-036>040-048>070-261200-
SOUTHEAST SOUTH DAKOTA

CITY           SKY/WX    TMP DP  RH WIND       PRES   REMARKS
SIOUX FALLS    PTCLDY    52  48  86 E5        29.84S
HURON          CLEAR     49  47  93 CALM      29.85R
MITCHELL       CLEAR     56  52  86 W5        29.87R
YANKTON        CLEAR     54  52  94 N6        29.84F
$$

ABBREVIATIONS USED IN REMARKS
   TC - TEMPERATURE IN CELSIUS
  WCI - WIND CHILL INDEX
   HX - HEAT INDEX
  VSB - VISIBILITY





USA.gov is the U.S. government's official web portal to all federal, state and local government web resources and services.